Visibility
15.0 15.0 15.0 10.6 12.8 15.0 15.0 15.0 15.0 15.0 15.0 15.0 15.0 15.0 15.0 15.0 15.0 15.0 15.0 15.0 15.0 15.0 15.0 15.0 15.0 15.0 15.0 15.0 15.0 15.0 15.0 15.0 15.0 15.0 15.0 15.0 15.0 15.0 15.0 15.0 15.0 15.0 15.0
15.0 15.0 15.0 15.0 15.0 15.0 15.0 15.0 15.0 15.0 15.0 15.0 15.0 15.0 15.0 15.0 15.0 15.0 15.0 15.0 15.0 15.0 15.0 15.0 15.0 15.0 15.0 15.0 15.0 15.0 15.0 15.0 15.0 15.0 15.0 15.0 15.0 15.0 15.0 15.0 15.0 15.0 15.0
15.0 15.0 15.0 15.0 15.0 15.0 15.0 15.0 15.0 15.0 15.0 15.0 15.0 15.0 15.0 15.0 15.0 15.0 15.0 15.0 15.0 15.0 15.0 15.0 15.0 15.0 15.0 15.0 15.0 15.0 15.0 15.0 15.0 15.0 15.0 15.0 15.0 15.0 15.0 15.0 15.0 15.0 15.0
15.0 15.0 15.0 15.0 15.0 15.0 15.0 15.0 15.0 15.0 15.0 15.0 15.0 15.0 15.0 15.0 15.0 15.0 15.0 15.0 15.0 15.0 15.0 15.0 15.0 15.0 15.0 15.0 15.0 15.0 15.0 15.0 15.0 15.0 15.0 15.0 15.0 15.0 15.0 15.0 15.0 15.0 15.0
15.0 15.0 15.0 15.0 15.0 15.0 15.0 15.0 15.0 15.0 15.0 15.0 15.0 15.0 15.0 15.0 15.0 15.0 15.0 15.0 15.0 15.0 15.0 15.0 15.0 15.0 15.0 15.0 15.0 15.0 15.0 15.0 15.0 15.0 15.0 15.0 15.0 15.0 15.0 15.0 15.0 15.0 15.0
15.0 15.0 15.0 15.0 15.0 15.0 15.0 15.0 15.0 15.0 15.0 15.0 15.0 15.0 15.0 15.0 15.0 15.0 15.0 15.0 15.0 15.0 15.0 15.0 15.0 15.0 15.0 15.0 15.0 15.0 15.0 15.0 15.0 15.0 15.0 15.0 15.0 15.0 15.0 15.0 15.0 15.0 15.0
15.0 15.0 15.0 15.0 15.0 15.0 15.0 15.0 15.0 15.0 15.0 15.0 15.0 15.0 15.0 15.0 15.0 15.0 15.0 15.0 15.0 15.0 15.0 15.0 15.0 15.0 15.0 15.0 15.0 15.0 15.0 15.0 15.0 15.0 15.0 15.0 15.0 15.0 15.0 15.0 15.0 15.0 15.0
15.0 15.0 15.0 15.0 15.0 15.0 15.0 15.0 15.0 15.0 15.0 15.0 15.0 15.0 15.0 15.0 15.0 15.0 15.0 15.0 15.0 15.0 15.0 15.0 15.0 15.0 15.0 15.0 15.0 15.0 15.0 15.0 15.0 15.0 15.0 15.0 15.0 15.0 15.0 15.0 15.0 15.0 15.0
15.0 15.0 15.0 15.0 15.0 15.0 15.0 15.0 15.0 15.0 15.0 15.0 15.0 15.0 15.0 12.9 15.0 15.0 15.0 15.0 15.0 15.0 15.0 15.0 15.0 15.0 15.0 15.0 15.0 15.0 15.0 15.0 15.0 15.0 15.0 15.0 15.0 15.0 15.0 15.0 15.0 15.0 15.0
15.0 15.0 15.0 15.0 15.0 15.0 15.0 15.0 15.0 15.0 15.0 15.0 15.0 15.0 15.0 15.0 15.0 15.0 15.0 15.0 15.0 15.0 15.0 15.0 15.0 15.0 15.0 15.0 15.0 15.0 15.0 15.0 15.0 15.0 15.0 15.0 15.0 15.0 15.0 15.0 15.0 15.0 15.0
15.0 15.0 15.0 15.0 15.0 15.0 15.0 15.0 15.0 15.0 15.0 15.0 15.0 15.0 15.0 15.0 15.0 15.0 15.0 15.0 15.0 15.0 15.0 15.0 15.0 15.0 15.0 15.0 15.0 15.0 15.0 15.0 15.0 15.0 15.0 15.0 15.0 15.0 15.0 15.0 15.0 15.0 15.0
15.0 15.0 15.0 15.0 15.0 15.0 15.0 15.0 15.0 15.0 15.0 15.0 15.0 15.0 15.0 15.0 15.0 15.0 15.0 15.0 15.0 15.0 15.0 15.0 15.0 15.0 15.0 15.0 15.0 15.0 15.0 15.0 15.0 15.0 15.0 15.0 15.0 15.0 15.0 15.0 15.0 15.0 15.0
12.8 15.0 15.0 15.0 15.0 15.0 15.0 15.0 15.0 15.0 15.0 15.0 15.0 15.0 15.0 15.0 15.0 15.0 15.0 15.0 15.0 15.0 15.0 15.0 15.0 15.0 15.0 15.0 13.8 15.0 15.0 15.0 15.0 15.0 15.0 15.0 15.0 15.0 15.0 15.0 15.0 15.0 15.0
15.0 15.0 15.0 15.0 15.0 15.0 15.0 15.0 15.0 15.0 15.0 15.0 15.0 15.0 15.0 15.0 15.0 15.0 15.0 15.0 15.0 15.0 15.0 15.0 15.0 15.0 15.0 15.0 13.1 15.0 15.0 15.0 15.0 15.0 15.0 15.0 15.0 15.0 15.0 15.0 15.0 15.0 15.0
15.0 14.2 1.4 15.0 15.0 15.0 15.0 15.0 15.0 15.0 13.2 15.0 15.0 15.0 15.0 15.0 15.0 15.0 15.0 15.0 5.6 7.5 12.9 15.0 15.0 13.3 14.5 6.6 11.0 15.0 15.0 15.0 15.0 15.0 15.0 15.0 15.0 15.0 15.0 15.0 15.0 15.0 15.0
2.8 6.5 13.1 14.2 5.9 9.4 15.0 11.9 15.0 15.0 15.0 4.6 14.1 5.2 15.0 15.0 15.0 15.0 15.0 14.5 7.5 6.2 7.9 14.5 15.0 8.8 10.8 7.2 14.8 15.0 15.0 15.0 15.0 15.0 15.0 15.0 15.0 15.0 15.0 15.0 15.0 15.0 15.0
15.0 15.0 10.7 8.7 1.4 15.0 11.3 15.0 15.0 15.0 15.0 2.5 15.0 2.7 12.7 15.0 2.7 15.0 15.0 3.2 14.2 3.7 9.6 13.7 4.4 4.9 3.8 14.9 5.6 3.0 14.3 15.0 15.0 15.0 15.0 15.0 15.0 15.0 15.0 15.0 15.0 15.0 15.0
6.2 3.4 14.3 8.9 12.6 15.0 15.0 15.0 15.0 15.0 9.9 10.9 15.0 14.5 15.0 15.0 15.0 11.8 15.0 15.0 2.9 3.0 7.7 6.4 15.0 9.7 8.2 2.1 2.1 4.0 15.0 15.0 15.0 15.0 15.0 15.0 15.0 15.0 15.0 15.0 15.0 15.0 15.0
14.8 8.1 15.0 10.7 14.5 15.0 12.0 15.0 15.0 15.0 15.0 15.0 5.9 15.0 15.0 4.6 15.0 14.3 12.1 14.6 15.0 2.3 15.0 4.2 2.3 2.8 1.0 4.8 2.7 3.3 15.0 15.0 15.0 15.0 15.0 15.0 15.0 15.0 15.0 15.0 15.0 15.0 15.0
15.0 15.0 15.0 15.0 15.0 15.0 13.1 12.7 15.0 5.1 15.0 15.0 15.0 15.0 6.4 13.3 15.0 8.6 0.5 0.5 9.0 9.3 6.2 15.0 2.9 5.9 3.5 0.7 12.3 15.0 14.4 15.0 15.0 15.0 15.0 15.0 15.0 15.0 15.0 15.0 15.0 15.0 15.0
15.0 15.0 15.0 15.0 15.0 15.0 0.2 0.1 0.2 6.1 15.0 15.0 15.0 15.0 7.3 4.4 0.1 1.7 10.3 5.0 15.0 10.5 0.6 3.8 5.9 0.2 0.3 0.2 5.1 11.1 14.7 15.0 15.0 15.0 15.0 15.0 15.0 15.0 15.0 15.0 15.0 15.0 15.0
15.0 15.0 15.0 15.0 15.0 15.0 0.0 0.0 0.0 0.0 0.3 0.2 0.1 0.1 1.6 0.1 0.1 0.0 0.1 0.1 8.7 11.8 9.9 11.1 13.9 13.3 14.1 15.0 6.3 12.0 15.0 15.0 15.0 0.7 14.8 0.7 15.0 15.0 15.0 15.0 15.0 15.0 15.0
10.8 15.0 15.0 0.7 8.7 15.0 0.0 0.0 0.0 0.1 0.0 0.2 0.2 0.1 0.1 1.6 0.1 12.1 0.0 0.1 0.1 0.5 6.5 14.7 14.3 15.0 14.7 6.8 15.0 15.0 15.0 15.0 13.7 4.0 12.0 0.2 15.0 15.0 15.0 15.0 15.0 15.0 15.0
0.1 0.1 0.5 15.0 1.4 7.5 0.4 0.0 0.0 0.0 0.0 0.1 0.4 15.0 8.6 0.3 3.4 8.2 11.3 4.4 11.4 10.2 11.2 15.0 15.0 11.7 15.0 6.1 15.0 6.2 10.7 0.2 4.5 4.4 0.5 4.8 8.6 15.0 15.0 15.0 15.0 15.0 15.0
0.0 0.0 0.2 0.7 0.0 0.1 2.8 0.0 0.1 0.1 0.0 0.0 0.0 1.0 14.1 2.4 0.2 0.7 14.9 0.1 0.0 0.0 9.0 14.4 15.0 15.0 15.0 13.9 8.4 10.8 13.6 6.6 10.5 0.2 1.9 2.3 12.4 8.7 15.0 4.9 15.0 15.0 15.0
0.0 0.0 0.0 0.1 0.6 0.1 0.0 0.1 0.1 0.1 0.0 0.0 0.1 0.6 0.1 10.2 0.2 0.2 2.4 0.1 0.0 0.0 0.1 0.2 0.5 0.3 1.4 14.1 15.0 15.0 15.0 15.0 0.4 0.1 1.2 2.4 3.1 1.1 12.0 10.4 0.2 15.0 15.0